• In Belgium
  • List of Countries
  • For 7 days
  • Water Temperature
  • Satellite Maps
  • Weather Map
  • Weather Widgets
  • user-avatar
    Login

    Hourly Weather Algiers

    Today, 23 August, Wednesday

    Time Temperature Precipitation Wind Pressure Humidity
    00:00 +26°C° 0 mm 3 mps 749 mmHg 60%
    01:00 +26°C° 0 mm 3 mps 749 mmHg 59%
    02:00 +26°C° 0 mm 3 mps 749 mmHg 59%
    03:00 +26°C° 0 mm 3 mps 748 mmHg 58%
    04:00 +26°C° 0 mm 3 mps 749 mmHg 55%
    05:00 +26°C° 0 mm 3 mps 749 mmHg 52%
    06:00 +27°C° 0 mm 3 mps 749 mmHg 49%
    07:00 +29°C° 0 mm 3 mps 749 mmHg 42%
    08:00 +31°C° 0 mm 3 mps 749 mmHg 35%
    09:00 +35°C° 0 mm 3 mps 750 mmHg 27%
    10:00 +36°C° 0 mm 4 mps 750 mmHg 26%
    11:00 +37°C° 0 mm 4 mps 749 mmHg 24%
    12:00 +39°C° 0 mm 5 mps 749 mmHg 22%
    13:00 +39°C° 0 mm 5 mps 749 mmHg 23%
    14:00 +39°C° 0 mm 5 mps 749 mmHg 23%
    15:00 +39°C° 0 mm 6 mps 748 mmHg 24%
    16:00 +38°C° 0 mm 6 mps 748 mmHg 28%
    17:00 +36°C° 0 mm 5 mps 748 mmHg 32%
    18:00 +34°C° 0 mm 5 mps 748 mmHg 36%
    19:00 +33°C° 0 mm 5 mps 749 mmHg 39%
    20:00 +32°C° 0 mm 4 mps 749 mmHg 43%
    21:00 +30°C° 0 mm 4 mps 749 mmHg 46%
    22:00 +30°C° 0 mm 4 mps 749 mmHg 44%
    23:00 +30°C° 0 mm 4 mps 749 mmHg 42%

    Tomorrow, 24 August, Thursday

    Time Temperature Precipitation Wind Pressure Humidity
    00:00 +30°C° 0 mm 3 mps 748 mmHg 40%
    01:00 +30°C° 0 mm 3 mps 748 mmHg 39%
    02:00 +30°C° 0 mm 3 mps 748 mmHg 37%
    03:00 +30°C° 0 mm 3 mps 748 mmHg 35%
    04:00 +30°C° 0 mm 3 mps 748 mmHg 35%
    05:00 +30°C° 0 mm 3 mps 748 mmHg 35%
    06:00 +30°C° 0 mm 3 mps 748 mmHg 35%
    07:00 +34°C° 0 mm 3 mps 749 mmHg 31%
    08:00 +36°C° 0 mm 3 mps 749 mmHg 28%
    09:00 +38°C° 0 mm 3 mps 749 mmHg 24%
    10:00 +39°C° 0 mm 3 mps 749 mmHg 23%
    11:00 +41°C° 0 mm 4 mps 749 mmHg 21%
    12:00 +42°C° 0 mm 4 mps 748 mmHg 20%
    13:00 +42°C° 0 mm 4 mps 748 mmHg 21%
    14:00 +42°C° 0 mm 4 mps 748 mmHg 22%
    15:00 +41°C° 0 mm 4 mps 747 mmHg 23%
    16:00 +40°C° 0 mm 4 mps 747 mmHg 26%
    17:00 +38°C° 0 mm 4 mps 747 mmHg 29%
    18:00 +37°C° 0 mm 3 mps 747 mmHg 32%
    19:00 +36°C° 0 mm 3 mps 748 mmHg 34%
    20:00 +35°C° 0 mm 2 mps 748 mmHg 37%
    21:00 +33°C° 0 mm 1 mps 748 mmHg 40%
    22:00 +33°C° 0 mm 1 mps 748 mmHg 39%
    23:00 +32°C° 0 mm 1 mps 748 mmHg 38%

    Day after tomorrow, 25 August, Friday

    Time Temperature Precipitation Wind Pressure Humidity
    00:00 +32°C° 0 mm 1 mps 748 mmHg 37%
    01:00 +32°C° 0 mm 1 mps 748 mmHg 35%
    02:00 +32°C° 0 mm 1 mps 747 mmHg 34%
    03:00 +32°C° 0 mm 2 mps 747 mmHg 33%
    04:00 +32°C° 0 mm 2 mps 747 mmHg 33%
    05:00 +32°C° 0 mm 2 mps 748 mmHg 33%
    06:00 +32°C° 0 mm 2 mps 748 mmHg 32%
    07:00 +35°C° 0 mm 2 mps 748 mmHg 29%
    08:00 +37°C° 0 mm 2 mps 748 mmHg 26%
    09:00 +39°C° 0 mm 2 mps 748 mmHg 23%
    10:00 +40°C° 0 mm 2 mps 748 mmHg 22%
    11:00 +42°C° 0 mm 3 mps 748 mmHg 21%
    12:00 +43°C° 0 mm 3 mps 747 mmHg 20%
    13:00 +43°C° 0 mm 3 mps 747 mmHg 21%
    14:00 +42°C° 0 mm 3 mps 747 mmHg 23%
    15:00 +42°C° 0 mm 3 mps 746 mmHg 24%
    16:00 +39°C° 0 mm 3 mps 746 mmHg 27%
    17:00 +38°C° 0 mm 2 mps 746 mmHg 30%
    18:00 +37°C° 0 mm 2 mps 746 mmHg 33%
    19:00 +36°C° 0 mm 2 mps 746 mmHg 34%
    20:00 +36°C° 0 mm 2 mps 747 mmHg 35%
    21:00 +35°C° 0 mm 2 mps 747 mmHg 36%
    22:00 +35°C° 0 mm 2 mps 747 mmHg 34%
    23:00 +36°C° 0 mm 3 mps 747 mmHg 33%

    26 August, Saturday

    Time Temperature Precipitation Wind Pressure Humidity
    00:00 +36°C° 0 mm 3 mps 746 mmHg 31%
    01:00 +36°C° 0 mm 3 mps 746 mmHg 31%
    02:00 +35°C° 0 mm 4 mps 746 mmHg 31%
    03:00 +35°C° 0 mm 4 mps 746 mmHg 31%
    04:00 +35°C° 0 mm 4 mps 746 mmHg 32%
    05:00 +35°C° 0 mm 4 mps 746 mmHg 32%
    06:00 +34°C° 0 mm 4 mps 746 mmHg 33%
    07:00 +36°C° 0 mm 3 mps 746 mmHg 30%
    08:00 +38°C° 0 mm 3 mps 746 mmHg 27%
    09:00 +39°C° 0 mm 3 mps 746 mmHg 24%
    10:00 +42°C° 0 mm 3 mps 746 mmHg 22%
    11:00 +43°C° 0 mm 3 mps 746 mmHg 21%
    12:00 +44°C° 0 mm 3 mps 746 mmHg 19%
    13:00 +44°C° 0 mm 3 mps 746 mmHg 19%
    14:00 +43°C° 0 mm 3 mps 745 mmHg 20%
    15:00 +43°C° 0 mm 4 mps 745 mmHg 20%
    16:00 +42°C° 0 mm 4 mps 745 mmHg 22%
    17:00 +41°C° 0 mm 4 mps 745 mmHg 24%
    18:00 +40°C° 0 mm 4 mps 745 mmHg 25%
    19:00 +40°C° 0 mm 4 mps 745 mmHg 26%
    20:00 +38°C° 0 mm 4 mps 746 mmHg 26%
    21:00 +37°C° 0 mm 4 mps 746 mmHg 27%
    22:00 +37°C° 0 mm 4 mps 746 mmHg 28%
    23:00 +36°C° 0 mm 4 mps 746 mmHg 28%

    27 August, Sunday

    Time Temperature Precipitation Wind Pressure Humidity
    00:00 +36°C° 0 mm 4 mps 746 mmHg 29%
    01:00 +36°C° 0 mm 4 mps 746 mmHg 29%
    02:00 +35°C° 0 mm 4 mps 745 mmHg 30%
    03:00 +35°C° 0 mm 4 mps 745 mmHg 30%
    04:00 +35°C° 0 mm 4 mps 746 mmHg 31%
    05:00 +34°C° 0 mm 3 mps 746 mmHg 32%
    06:00 +34°C° 0 mm 3 mps 746 mmHg 33%
    07:00 +36°C° 0 mm 3 mps 746 mmHg 29%
    08:00 +38°C° 0 mm 3 mps 746 mmHg 24%
    09:00 +41°C° 0 mm 2 mps 747 mmHg 20%
    10:00 +42°C° 0 mm 3 mps 746 mmHg 19%
    11:00 +43°C° 0 mm 3 mps 746 mmHg 18%
    12:00 +44°C° 0 mm 3 mps 746 mmHg 16%
    13:00 +43°C° 0 mm 4 mps 746 mmHg 19%
    14:00 +43°C° 0 mm 4 mps 746 mmHg 21%
    15:00 +42°C° 0 mm 4 mps 746 mmHg 23%
    16:00 +41°C° 0 mm 4 mps 746 mmHg 26%
    17:00 +39°C° 0 mm 3 mps 746 mmHg 29%
    18:00 +37°C° 0 mm 3 mps 746 mmHg 32%
    19:00 +36°C° 0 mm 3 mps 746 mmHg 33%
    20:00 +36°C° 0 mm 3 mps 746 mmHg 34%
    21:00 +35°C° 0 mm 3 mps 746 mmHg 35%
    22:00 +35°C° 0 mm 3 mps 746 mmHg 34%
    23:00 +35°C° 0 mm 3 mps 747 mmHg 33%

    28 August, Monday

    Time Temperature Precipitation Wind Pressure Humidity
    00:00 +35°C° 0 mm 3 mps 747 mmHg 32%
    01:00 +34°C° 0.2 mm 3 mps 747 mmHg 35%
    02:00 +34°C° 0.2 mm 4 mps 747 mmHg 37%
    03:00 +34°C° 0.2 mm 4 mps 747 mmHg 40%
    04:00 +33°C° 0.1 mm 4 mps 748 mmHg 48%
    05:00 +31°C° 0.1 mm 3 mps 748 mmHg 57%
    06:00 +30°C° 0.1 mm 2 mps 748 mmHg 66%
    07:00 +31°C° 0 mm 2 mps 748 mmHg 61%
    08:00 +32°C° 0 mm 2 mps 749 mmHg 56%
    09:00 +34°C° 0 mm 2 mps 749 mmHg 51%
    10:00 +35°C° 0 mm 2 mps 748 mmHg 46%
    11:00 +37°C° 0 mm 2 mps 748 mmHg 42%
    12:00 +38°C° 0 mm 3 mps 748 mmHg 37%
    13:00 +38°C° 0 mm 4 mps 747 mmHg 36%
    14:00 +40°C° 0 mm 4 mps 747 mmHg 35%
    15:00 +40°C° 0 mm 5 mps 747 mmHg 33%
    16:00 +40°C° 0 mm 5 mps 747 mmHg 35%
    17:00 +39°C° 0 mm 5 mps 747 mmHg 38%
    18:00 +37°C° 0 mm 5 mps 747 mmHg 40%
    19:00 +36°C° 0 mm 5 mps 747 mmHg 42%
    20:00 +35°C° 0 mm 5 mps 747 mmHg 45%
    21:00 +34°C° 0 mm 5 mps 747 mmHg 48%
    22:00 +34°C° 0 mm 5 mps 747 mmHg 46%
    23:00 +34°C° 0 mm 5 mps 747 mmHg 44%
    Show more